Flag for Germany Weather past 2 weeks in Papenburg, Lower Saxony, Germany

Now
56 °F

Sunny.


Feels Like: 55 °F
Forecast: 54 / 64 °F
Wind: 7 mph from Southwest

Location: Emden-Koenigspolder

Current Time: Jul 29, 2015 at 9:19:37 AM

Latest Report: Jul 29, 2015 at 9:00 AM


Visibility: 9 mi

Pressure: 29.61 "Hg

Humidity: 80%

Dew point: 50 °F

Location of PapenburgLocation

Historic Weather in Papenburg — Graph

°F

Papenburg temperature yesterday

Maximum temperature yesterday: 65 °F (at 12:00 PM)
Minimum temperature yesterday: 58 °F (at 11:00 PM)
Average temperature yesterday: 61 °F

Past Weeks' High & Low Weather Summary

 TemperatureHumidityPressure
High79 °F (Jul 17, 2:00 PM)100% (Jul 22, 5:00 AM)30.11 "Hg (Jul 22, 5:00 AM)
Low50 °F (Jul 19, 1:00 AM)46% (Jul 18, 6:00 PM)29.35 "Hg (Jul 25, 2:00 PM)
Average63 °F80%29.83 "Hg
* Reported Jul 14 8:00 AM — Jul 29 8:00 AM, Papenburg, Weather by CustomWeather, © 2015

Note: Actual official high and low records may vary slightly from our data, if they occured in-between our weather recording intervals... More about our weather records

Advertising

Papenburg weather history for previous 24 hours

 ConditionsComfort  
Time TempWeatherWind HumidityBarometerVisibility
8:00 AM
Wed, Jul 29
55 °FOvercast.7 mph83%29.61 "Hg34 mi
7:00 AM56 °FOvercast.6 mph90%29.61 "Hg10 mi
6:00 AM56 °FLow clouds.6 mph92%29.61 "Hg22 mi
4:00 AM57 °FOvercast.5 mph90%29.61 "Hg31 mi
3:00 AM57 °FLow clouds.5 mph92%29.61 "Hg17 mi
2:00 AM58 °FLow clouds.6 mph91%29.61 "Hg19 mi
1:00 AM58 °FLow clouds.6 mph91%29.61 "Hg19 mi
11:00 PM
Tue, Jul 28
58 °FOvercast.6 mph88%29.61 "Hg22 mi
10:00 PM59 °FPassing clouds.5 mph79%29.61 "Hg43 mi
9:00 PM61 °FScattered clouds.6 mph71%29.60 "Hg31 mi
8:00 PM61 °FOvercast.6 mph72%29.60 "Hg31 mi
7:00 PM62 °FOvercast.6 mph75%29.59 "Hg31 mi
6:00 PM62 °FOvercast.9 mph73%29.59 "Hg18 mi
5:00 PM62 °FOvercast.10 mph75%29.58 "Hg19 mi
4:00 PM63 °FOvercast.9 mph77%29.56 "Hg15 mi
3:00 PM64 °FOvercast.5 mph82%29.54 "Hg28 mi
2:00 PM64 °FLight rain. Overcast.6 mph81%29.54 "Hg25 mi
1:00 PM62 °FRain. Low clouds.5 mph89%29.53 "Hg11 mi
12:00 PM65 °FOvercast.6 mph79%29.50 "Hg25 mi
10:00 AM60 °FLow clouds.6 mph91%29.50 "Hg19 mi
9:00 AM60 °FRain. Low clouds.8 mph92%29.50 "Hg6 mi
Weather by CustomWeather, © 2015

See weather overviewHow to use our weather pages